Temp
16 15 14 15 16 18 18 17 17 16 15 13 13 11 7 5 5 4 3 2 2 1 -1 -2 -2 -3 -3 -3 -3 -2 -1 -0 1 1 0 1 0 1 2 2 3 4 4 5
15 14 17 18 18 17 18 18 17 13 14 13 13 14 9 6 5 5 4 3 2 1 -1 -2 -2 -3 -3 -4 -4 -4 -2 -2 -1 -0 -1 -1 -1 -1 -1 1 1 2 2 3
15 16 18 18 17 17 17 17 17 15 12 13 12 12 9 8 6 6 5 4 3 1 -0 -1 -2 -2 -4 -5 -6 -5 -4 -3 -3 -2 -2 -2 -1 -2 -1 -1 -0 -1 0 1
16 18 17 17 17 18 16 18 18 12 12 11 12 11 12 10 6 6 5 4 3 1 1 -1 -1 -3 -4 -6 -6 -6 -6 -5 -4 -3 -2 -2 -3 -4 -5 -4 -3 -2 -2 -1
16 16 16 16 17 18 17 17 17 13 12 14 11 11 13 11 7 7 5 4 3 2 1 -0 -1 -4 -5 -6 -7 -7 -7 -6 -5 -4 -4 -3 -4 -5 -4 -4 -4 -3 -3 -2
16 18 16 17 18 17 18 16 16 14 13 11 13 12 13 10 11 9 8 6 4 2 -0 -1 -3 -5 -6 -6 -7 -7 -7 -7 -6 -5 -5 -5 -5 -5 -5 -4 -4 -5 -4 -4
15 15 16 17 16 16 15 14 11 12 11 12 14 13 14 14 12 11 9 7 4 1 -1 -4 -4 -5 -6 -6 -7 -7 -8 -8 -7 -7 -6 -6 -6 -5 -5 -5 -5 -5 -5 -5
12 12 15 16 15 15 15 15 13 13 13 14 15 13 13 7 6 8 10 7 3 -0 -2 -4 -4 -4 -5 -6 -7 -8 -8 -8 -8 -7 -7 -7 -6 -6 -6 -6 -6 -7 -7 -7
12 14 16 16 17 17 14 14 16 15 15 15 13 12 7 5 5 8 7 4 0 -1 -3 -4 -4 -5 -6 -6 -7 -8 -8 -8 -8 -8 -8 -8 -8 -7 -8 -7 -7 -7 -7 -7
10 11 16 16 16 16 15 15 14 13 12 13 13 14 14 5 4 5 3 1 -1 -2 -3 -4 -5 -6 -6 -7 -8 -8 -9 -9 -9 -9 -9 -9 -8 -8 -8 -8 -8 -7 -7 -7
9 10 12 14 14 13 15 15 15 15 14 13 14 14 7 8 6 4 2 0 -1 -3 -4 -5 -6 -7 -8 -8 -9 -9 -10 -10 -10 -10 -10 -9 -9 -9 -8 -8 -8 -8 -7 -7
8 8 11 11 13 12 15 15 15 14 13 14 14 13 6 5 6 4 2 -0 -2 -3 -5 -5 -7 -8 -8 -9 -9 -10 -10 -10 -11 -11 -10 -10 -10 -9 -9 -9 -9 -8 -8 -8
7 8 10 10 9 9 10 10 13 14 13 14 13 13 4 5 4 3 1 -1 -2 -4 -5 -7 -8 -8 -9 -9 -10 -11 -11 -12 -11 -11 -10 -10 -10 -9 -9 -9 -9 -9 -9 -9
6 7 9 10 9 8 9 9 11 12 11 12 13 8 1 3 2 1 -0 -2 -4 -5 -7 -9 -9 -10 -10 -11 -11 -12 -12 -11 -11 -11 -10 -10 -10 -10 -10 -10 -9 -9 -9 -9
6 7 8 8 9 8 8 8 9 10 11 11 12 13 4 3 1 0 -2 -4 -5 -7 -8 -9 -11 -13 -12 -13 -13 -13 -12 -12 -11 -11 -11 -11 -10 -10 -10 -10 -10 -10 -10 -10
5 6 7 7 8 7 7 7 8 8 9 10 8 7 1 2 0 -2 -4 -5 -6 -8 -9 -10 -11 -13 -13 -13 -13 -13 -12 -12 -11 -11 -11 -11 -11 -11 -10 -10 -10 -10 -10 -10
3 5 5 7 6 6 6 5 7 9 9 9 10 8 -1 -1 -1 -3 -4 -6 -7 -8 -9 -11 -11 -12 -13 -13 -13 -12 -12 -12 -12 -12 -11 -11 -11 -11 -11 -11 -11 -11 -11 -11
1 3 4 5 5 6 5 -1 0 2 2 2 2 -0 -0 -1 -3 -4 -5 -7 -8 -9 -10 -11 -11 -12 -13 -13 -12 -12 -12 -12 -12 -12 -12 -11 -11 -11 -11 -11 -12 -12 -12 -12
3 2 2 2 4 6 2 -2 -0 3 2 -1 -1 -3 -5 -6 -6 -7 -7 -8 -9 -10 -11 -11 -12 -13 -13 -13 -12 -12 -12 -12 -12 -12 -12 -12 -12 -12 -12 -12 -12 -12 -12 -12
4 3 4 1 2 4 -2 -4 -5 -5 3 -4 -4 -5 -6 -5 -5 -8 -9 -9 -10 -11 -12 -13 -13 -13 -13 -13 -12 -12 -12 -12 -12 -12 -12 -12 -12 -13 -13 -13 -12 -12 -12 -12
2 3 3 4 4 0 -9 -8 -7 3 -1 -5 -6 -6 -6 -5 -6 -9 -10 -11 -12 -13 -14 -13 -13 -14 -13 -13 -13 -13 -13 -12 -12 -12 -12 -12 -12 -12 -12 -12 -13 -13 -13 -13
1 2 2 2 4 4 -12 -9 -4 -8 -7 -7 -7 -9 -10 -10 -10 -11 -12 -12 -13 -13 -13 -14 -14 -14 -13 -13 -13 -12 -12 -12 -12 -13 -13 -13 -13 -13 -13 -13 -13 -13 -14 -14
-0 -4 -4 -6 -7 -13 -15 -13 -12 -12 -9 -10 -10 -10 -11 -11 -12 -12 -12 -13 -13 -14 -14 -13 -13 -14 -14 -13 -13 -12 -13 -13 -13 -13 -13 -13 -14 -14 -14 -14 -14 -14 -14 -15
-7 -8 -5 -7 -11 -13 -13 -14 -12 -10 -10 -10 -10 -11 -11 -12 -12 -13 -13 -13 -14 -14 -13 -13 -13 -13 -13 -13 -13 -13 -14 -14 -14 -14 -14 -14 -14 -14 -15 -15 -15 -15 -15 -15
-7 -9 -7 -11 -12 -12 -13 -13 -12 -11 -11 -11 -11 -11 -12 -12 -12 -13 -13 -13 -12 -13 -12 -12 -12 -13 -13 -14 -14 -14 -14 -15 -15 -15 -15 -15 -15 -15 -15 -15 -15 -15 -14 -14
-11 -10 -7 -7 -13 -11 -13 -13 -12 -12 -12 -12 -12 -12 -12 -12 -12 -12 -13 -13 -13 -13 -13 -13 -13 -14 -14 -14 -15 -15 -15 -15 -16 -15 -16 -15 -15 -15 -15 -15 -15 -15 -14 -14
Height
762 769 767 768 766 763 761 768 772 775 781 790 795 805 823 833 838 842 848 852 853 859 862 864 864 867 868 867 867 866 866 866 867 868 869 871 872 873 872 871 875 878 879 878
765 765 757 757 758 762 760 763 766 786 787 791 792 793 812 826 829 833 839 845 850 855 861 863 864 865 868 867 866 868 865 867 868 869 870 871 874 876 875 873 878 880 881 879
758 753 753 752 755 758 760 763 763 774 791 793 795 792 809 814 823 830 834 839 844 850 855 860 863 866 867 867 867 868 868 869 869 869 871 873 876 878 878 876 880 883 884 883
753 744 748 752 752 753 761 753 755 782 788 795 790 795 781 793 813 820 828 831 836 844 851 856 862 865 866 869 868 869 870 870 871 870 871 872 877 878 882 881 884 886 886 886
749 747 749 749 747 747 752 752 756 775 783 775 794 799 774 783 807 807 811 817 827 836 844 851 857 863 867 868 868 869 872 871 872 871 872 874 878 881 883 884 887 888 889 889
743 737 741 743 741 743 747 757 761 772 781 790 776 785 772 785 773 779 798 812 821 831 842 850 858 863 867 868 870 872 873 873 873 874 876 878 880 884 885 887 889 891 892 892
743 740 738 738 745 744 753 765 787 787 785 773 762 771 755 749 753 760 777 797 814 830 841 850 857 863 867 868 871 873 874 875 876 878 879 881 883 885 888 889 891 893 894 894
750 748 736 735 737 743 747 753 761 763 763 759 749 751 748 770 772 765 766 788 811 827 839 850 857 862 866 868 871 874 876 878 879 880 881 883 885 887 889 891 893 895 895 897
742 732 715 719 724 731 743 745 738 747 740 748 749 748 772 776 776 768 775 793 813 826 837 847 855 861 865 868 871 875 877 880 881 882 883 885 887 889 891 893 895 896 897 898
747 740 715 715 723 724 726 733 751 750 755 751 743 737 733 776 778 777 788 801 815 825 837 847 855 860 865 869 874 877 878 881 883 885 886 887 888 891 893 895 896 897 898 899
748 745 730 720 718 722 723 727 729 730 733 738 735 726 758 754 764 771 788 802 814 826 837 846 855 862 867 871 874 878 881 882 884 886 888 889 891 893 895 896 897 898 900 900
748 742 726 727 721 722 712 714 718 724 723 722 728 726 763 760 760 774 790 804 817 828 838 848 856 863 868 873 876 879 881 883 885 888 890 891 892 895 896 897 899 900 901 902
757 744 726 724 735 737 731 732 718 715 720 716 726 718 767 763 770 779 791 807 818 830 840 850 858 865 870 874 877 879 882 884 887 889 890 892 894 896 897 899 900 902 903 903
763 749 739 729 734 742 735 731 720 716 721 710 706 741 780 770 774 785 795 807 819 831 842 851 860 866 870 874 877 880 883 886 888 889 891 893 895 897 898 900 901 903 904 905
761 750 742 732 727 732 732 733 727 719 712 712 703 707 750 758 769 783 797 811 820 833 844 853 860 866 870 875 878 881 884 887 889 890 892 894 896 897 899 901 903 903 904 905
762 752 747 739 727 732 732 729 725 722 717 711 726 734 756 761 775 790 800 810 822 832 843 855 863 868 871 875 879 882 885 887 890 891 893 895 896 898 900 901 903 903 904 905
768 760 755 739 738 739 734 732 721 711 710 714 710 717 764 772 780 788 800 812 824 834 843 852 861 867 871 875 878 882 885 888 890 891 893 894 896 898 899 901 902 903 904 904
771 763 762 751 747 734 723 750 746 740 740 739 740 749 754 765 781 794 805 813 825 836 844 853 860 866 872 875 878 881 885 887 890 892 893 895 896 898 899 900 901 902 902 903
751 765 768 765 749 722 739 759 752 734 744 754 757 765 773 785 794 809 813 819 827 836 846 854 860 864 870 875 879 882 885 887 889 892 893 895 896 897 899 900 901 902 902 903
740 750 753 764 756 737 763 771 772 769 734 766 766 776 779 780 790 807 815 823 832 840 848 854 861 866 872 876 879 882 885 887 890 892 893 895 896 898 899 900 901 901 901 901
752 748 742 740 734 748 790 785 778 735 757 775 776 781 784 783 789 805 817 828 836 842 851 858 863 868 873 876 880 883 886 889 891 893 894 895 896 897 898 899 900 900 899 899
748 747 743 745 734 732 803 787 771 791 783 781 783 792 798 802 806 814 823 832 840 847 855 860 865 870 875 878 881 884 887 889 891 892 893 894 895 896 898 898 898 897 897 896
760 774 776 787 793 810 809 806 800 797 791 793 795 799 801 809 815 823 830 838 845 851 857 863 867 872 877 880 883 885 888 889 890 891 893 894 895 896 896 896 895 895 894 894
784 790 780 789 804 809 807 805 799 795 796 797 800 803 807 811 821 829 836 843 849 856 861 865 869 874 878 881 883 885 887 889 890 891 893 894 894 895 894 894 894 893 892 891
787 791 789 803 807 807 808 807 803 800 801 803 807 810 815 819 828 833 842 847 852 858 864 867 871 875 878 881 884 886 888 889 891 892 893 894 894 893 892 892 891 891 890 889
797 793 786 786 803 800 808 810 807 807 809 811 812 819 825 827 833 839 846 851 856 861 866 869 872 876 880 883 886 888 889 891 891 892 892 892 892 891 891 890 889 889 889 887
Wind_Speed
8 9 14 14 14 12 12 13 14 7 11 9 11 8 13 12 11 12 11 10 9 9 7 6 6 5 6 7 6 7 6 7 6 7 8 9 13 13 14 15 13 11 11 12
9 17 12 14 15 17 16 13 2 9 7 7 9 11 14 17 15 15 13 12 11 10 9 10 8 7 6 7 7 6 7 6 7 7 8 8 11 14 15 16 15 15 14 14
11 11 18 15 14 16 15 12 6 5 7 3 3 6 12 14 12 13 13 12 11 13 11 11 11 9 9 8 7 7 7 7 8 10 11 12 13 13 15 17 17 18 18 18
15 14 19 18 15 13 13 9 10 15 7 4 9 4 12 14 15 15 14 15 14 14 12 14 14 12 10 9 9 9 9 9 9 11 11 11 11 11 12 17 17 19 19 19
8 8 10 15 18 12 12 3 10 10 6 3 7 4 6 16 11 17 20 20 17 16 15 14 15 15 12 11 11 12 11 13 12 13 13 15 17 18 17 17 18 19 19 19
13 5 5 14 10 10 5 3 5 6 3 6 8 8 6 9 14 20 16 17 16 16 13 17 19 17 15 13 13 13 13 15 16 17 17 18 19 18 18 17 17 16 17 19
11 14 5 6 8 9 7 9 3 4 5 6 9 10 11 10 7 11 22 18 17 16 14 13 16 16 16 15 13 14 14 16 18 20 20 19 19 18 17 18 16 14 16 18
11 10 19 11 13 14 15 15 6 8 8 6 12 8 7 3 5 1 16 21 20 18 15 13 17 18 18 16 15 15 17 17 18 19 19 18 17 19 19 16 15 16 16 16
6 12 7 17 13 17 11 19 15 9 12 3 5 1 1 4 3 1 20 22 20 17 16 14 20 21 18 18 17 17 17 17 17 17 18 19 17 17 16 15 15 15 14 13
3 4 6 14 13 17 13 8 9 9 7 14 6 7 7 7 10 12 18 19 18 16 16 14 19 20 20 19 18 17 17 18 16 16 16 17 17 16 15 14 14 13 12 12
7 5 2 2 14 20 13 12 10 7 12 7 7 6 2 2 15 20 18 18 18 17 15 13 19 21 21 19 18 18 18 17 16 15 15 16 16 15 14 13 12 12 11 11
1 4 9 15 4 5 15 21 19 9 13 15 9 8 1 4 14 16 17 18 17 16 15 18 20 20 21 20 19 18 16 17 16 14 14 14 13 12 12 11 11 10 10 10
3 3 3 4 1 3 5 9 17 21 3 15 11 8 1 6 11 15 19 18 17 17 15 15 19 18 20 20 20 18 16 16 15 14 13 12 11 10 10 9 9 9 9 9
1 3 7 8 4 1 5 11 18 19 7 18 19 2 3 11 16 16 18 19 18 16 15 12 13 19 22 21 20 18 16 14 14 12 11 10 9 8 7 7 7 7 7 7
2 4 3 10 11 8 8 10 14 21 21 11 10 16 12 18 19 18 18 17 19 17 15 12 11 17 21 19 17 16 15 13 12 11 9 8 7 7 6 5 4 4 5 6
2 4 3 5 7 5 6 10 12 10 18 19 2 1 4 13 14 15 18 20 19 18 16 13 15 16 18 20 18 15 13 11 9 9 8 7 6 5 3 3 3 4 5 6
3 3 3 7 2 3 6 8 12 6 5 8 17 9 10 14 16 19 19 18 18 17 16 15 18 17 17 19 18 15 12 10 8 7 6 5 4 3 3 3 5 6 7 9
4 5 3 4 1 7 4 2 2 1 3 5 4 12 14 16 14 14 14 19 17 17 16 18 20 20 18 19 17 15 11 9 7 6 4 3 2 2 3 5 7 8 9 10
14 4 4 3 5 7 1 3 1 3 1 3 7 11 17 20 20 10 13 16 18 18 22 21 22 24 23 18 16 13 10 8 6 4 3 2 1 2 4 6 7 8 9 11
7 11 7 2 4 6 1 2 6 3 3 5 7 15 19 14 6 6 16 17 22 25 24 25 27 24 21 16 14 12 10 7 5 4 3 3 3 4 5 7 8 10 11 13
3 5 14 13 8 3 3 6 6 3 2 2 7 12 11 0 3 19 19 21 26 27 27 27 25 21 17 15 14 12 9 7 5 3 2 2 2 4 6 7 9 10 12 12
3 3 4 6 6 10 6 4 1 2 4 4 7 10 15 16 19 19 19 19 26 25 22 22 21 18 16 14 13 11 9 6 4 3 3 3 4 4 5 8 9 10 11 13
3 1 1 1 2 1 2 2 3 3 1 3 10 13 18 17 18 17 16 19 21 22 20 18 19 18 14 12 11 11 7 4 3 4 4 3 4 4 5 7 8 9 10 11
2 1 1 2 2 2 4 3 3 6 8 9 13 15 16 20 17 16 15 19 20 19 18 19 19 17 15 11 9 7 6 4 4 4 3 3 5 5 6 7 7 8 10 13
0 1 3 1 2 3 4 5 3 10 12 14 13 16 17 18 16 16 13 19 20 19 18 17 18 17 15 11 9 8 5 4 4 4 4 4 4 6 7 8 10 11 12 13
1 1 2 3 2 3 4 3 6 12 13 15 18 16 19 22 16 21 19 20 20 19 18 17 17 17 14 11 9 7 5 6 6 6 4 5 7 9 9 10 13 12 11 13
Wind_Direction
193 204 200 196 211 235 221 199 224 73 171 168 199 174 183 180 194 190 187 185 177 174 161 147 125 101 79 71 70 74 92 94 111 120 104 97 90 84 80 75 73 66 63 70
178 217 203 225 211 226 252 265 260 84 149 199 202 224 174 179 203 198 187 186 184 165 170 162 144 121 96 80 75 73 86 95 112 110 118 111 104 87 83 75 69 67 65 70
203 208 227 216 229 219 236 249 235 151 144 273 307 260 161 193 182 199 196 189 179 177 173 167 157 142 119 93 86 87 90 102 115 123 113 113 110 99 81 74 72 67 67 69
236 223 204 234 229 225 230 233 260 137 138 214 167 261 208 179 187 194 193 192 182 174 168 164 158 145 125 116 104 99 102 107 112 124 132 129 118 101 81 81 74 72 69 67
218 222 242 217 228 220 235 6 238 154 198 299 185 290 250 148 196 205 200 196 183 173 167 157 149 135 130 121 108 101 101 99 104 111 112 115 106 101 94 85 80 73 69 68
253 216 233 228 235 217 214 78 33 127 174 245 213 200 223 180 209 210 193 187 177 160 142 134 126 132 126 119 111 105 100 95 99 104 106 107 105 98 93 82 77 72 69 66
238 238 238 256 215 203 189 145 164 219 205 237 205 211 222 191 190 185 190 177 161 145 138 131 137 138 135 124 115 106 103 97 103 101 99 99 99 98 97 93 81 81 73 66
214 230 214 198 216 204 198 183 189 207 220 233 204 233 226 48 24 84 176 158 144 145 140 139 146 144 135 127 121 115 106 101 102 102 100 103 105 100 95 94 96 88 78 70
222 227 189 187 192 202 187 214 212 277 283 276 248 173 91 106 41 78 136 143 144 142 141 146 140 136 134 129 124 121 114 107 104 106 113 109 108 105 102 101 98 92 88 79
287 274 256 190 191 228 194 160 205 226 237 247 226 236 217 203 177 142 143 145 143 140 140 138 134 134 131 125 124 124 123 114 113 113 109 108 107 104 102 100 90 84 81 77
179 231 279 116 204 202 202 193 211 202 221 224 248 242 252 315 178 158 150 144 143 140 137 135 132 129 132 131 129 123 120 118 114 112 109 105 100 99 97 91 85 79 75 69
92 254 219 208 346 302 241 215 213 217 204 225 252 250 251 333 144 145 143 143 139 137 136 133 132 133 136 135 132 127 127 120 116 117 113 106 102 97 93 87 82 79 75 69
354 261 284 185 190 294 231 216 228 237 263 221 207 240 162 106 126 143 142 141 141 137 137 132 132 140 141 135 129 128 128 124 123 120 115 107 101 97 90 87 83 78 72 64
167 265 231 268 311 258 257 233 220 218 224 228 236 204 242 155 145 147 145 143 142 140 134 131 128 125 129 131 137 137 132 129 127 123 115 107 101 96 94 89 80 70 58 47
263 271 264 261 272 218 227 245 256 229 225 211 215 222 186 179 161 154 143 142 139 137 136 138 128 123 133 136 136 134 132 130 126 121 116 109 106 102 94 85 67 47 27 11
206 280 291 271 252 223 247 234 237 252 241 243 258 49 279 130 134 143 148 149 146 141 138 130 127 128 137 143 140 137 134 131 127 120 115 112 108 100 85 52 14 358 349 340
192 271 304 271 154 284 267 228 218 221 191 231 225 204 143 137 151 154 150 148 145 142 138 137 141 143 143 145 143 142 139 134 129 123 118 111 100 77 37 359 343 337 335 333
230 212 237 273 161 242 232 98 155 265 54 16 40 141 151 146 130 133 143 142 141 139 136 134 137 133 131 141 143 141 140 133 128 122 112 100 76 21 350 339 337 337 338 329
205 202 264 224 217 288 271 18 49 155 106 15 111 105 110 110 97 94 133 135 134 131 131 132 133 134 140 139 139 142 137 131 129 123 112 96 20 357 351 337 332 325 314 309
172 205 234 227 221 226 23 40 360 298 250 352 126 137 139 142 148 154 135 128 124 122 127 126 134 137 138 141 144 139 133 126 115 104 81 50 12 345 330 326 317 313 312 312
176 219 223 233 245 284 326 323 321 180 221 26 129 146 154 19 89 126 122 119 121 124 127 134 135 134 141 143 139 129 124 114 115 116 96 39 354 327 323 316 312 310 311 310
219 235 194 220 239 253 349 312 172 348 9 97 108 106 104 108 111 116 117 119 121 122 123 128 126 132 137 136 131 123 114 124 108 84 54 20 352 331 315 313 321 324 324 326
270 162 256 351 290 298 349 311 306 268 26 63 111 122 121 117 115 116 116 116 116 119 123 128 126 126 130 129 123 119 114 98 76 55 39 1 331 336 339 332 331 334 335 339
91 166 318 152 85 18 349 271 291 55 91 103 114 120 120 115 113 111 110 112 114 119 122 127 127 124 123 120 112 110 92 87 71 59 31 13 5 13 356 353 350 340 336 327
171 337 139 21 103 124 27 47 34 92 96 98 96 106 111 111 108 112 112 116 117 118 122 122 121 116 111 113 104 93 87 82 89 75 64 55 17 9 7 355 344 334 326 315
353 157 183 238 265 56 96 118 99 100 101 103 102 95 96 107 112 114 109 112 115 116 114 107 105 107 110 110 108 107 106 99 94 91 51 36 5 357 347 339 331 328 324 323